Theta_e
314 315 321 325 315 311 314 316 314 316 317 320 318 318 317 323 320 317 331 332 335 334 333 333 333 332 332 331 331 330 328 326 324 328 326 322 321 324 317 313 311 312 316 316 315 315 315 316 319
315 321 324 322 311 313 313 313 316 315 320 320 320 321 323 325 329 328 331 330 335 335 332 333 333 332 332 331 331 330 328 325 322 322 321 321 321 323 318 315 312 310 310 311 312 312 312 313 314
320 321 322 310 309 312 314 314 313 317 319 316 320 321 323 325 328 328 326 332 335 336 332 333 333 333 332 331 330 330 329 324 322 321 321 320 323 324 322 320 317 315 312 309 309 309 309 310 310
321 322 316 311 315 314 314 313 313 316 316 316 320 320 324 324 325 328 325 335 336 334 334 334 334 333 333 332 330 329 330 326 322 321 323 323 324 325 325 325 323 320 318 315 309 307 306 306 307
321 320 311 312 314 315 312 314 314 314 315 316 317 319 325 324 324 327 329 332 335 333 333 335 334 333 333 332 330 328 330 328 324 324 325 325 327 327 326 325 325 325 321 318 317 309 305 304 304
320 316 311 313 314 315 314 315 315 314 314 317 319 322 324 325 326 329 331 332 333 332 333 335 335 333 332 331 330 328 329 329 327 327 327 327 327 327 327 326 327 327 324 321 318 317 309 304 303
315 310 313 311 312 315 315 316 313 312 314 315 318 315 323 326 326 329 332 333 334 334 331 332 332 333 333 331 329 328 330 330 330 329 329 328 328 328 327 327 327 326 324 321 319 319 319 313 305
317 310 312 311 312 315 315 315 315 315 314 316 317 314 321 324 326 330 332 332 332 334 334 333 332 332 331 331 331 331 332 331 332 332 331 329 329 328 328 327 326 324 323 321 321 320 318 318 319
315 308 310 312 311 314 315 314 314 315 315 315 316 316 316 321 324 326 329 329 330 331 329 328 335 333 333 333 333 332 333 333 333 332 332 330 329 329 329 327 326 324 323 322 321 321 320 320 319
312 308 312 312 311 313 314 315 316 315 314 313 315 316 316 320 320 322 323 323 323 325 326 326 326 337 339 338 334 334 333 333 333 333 333 332 331 330 330 328 327 325 324 323 322 321 321 320 320
311 310 311 315 316 315 314 314 315 314 312 314 315 316 316 319 319 319 318 317 318 321 322 323 323 323 324 324 335 332 331 331 332 333 335 332 331 329 331 329 328 327 325 323 322 321 321 321 320
312 313 314 315 316 315 314 315 315 314 315 316 316 316 316 316 317 316 316 316 315 315 317 318 320 322 323 323 323 333 331 331 330 331 334 330 330 331 330 331 328 327 326 326 325 323 321 321 321
313 314 315 316 316 316 316 315 314 315 316 316 316 315 315 315 315 315 315 315 314 314 314 313 314 314 315 319 321 329 332 330 329 330 331 329 330 330 332 331 328 326 328 326 324 324 323 322 322
315 315 315 315 315 315 315 315 315 317 317 316 316 315 314 314 314 315 315 314 314 314 313 312 312 312 312 312 318 329 332 329 328 329 329 329 328 328 331 329 327 325 326 325 323 324 321 321 321
314 313 310 312 314 314 315 313 311 316 315 316 315 314 314 314 314 314 314 314 313 313 313 312 312 312 312 311 317 327 325 328 328 329 328 328 328 329 328 328 327 325 325 323 322 320 322 322 321
312 310 313 312 312 314 313 311 312 314 314 314 314 314 313 313 314 313 312 312 313 313 313 313 313 313 312 312 315 322 328 326 326 328 327 327 327 327 327 326 327 324 324 323 321 321 321 319 318
309 313 312 312 311 311 311 312 312 313 312 313 313 313 314 314 313 313 312 312 312 312 312 313 312 312 312 312 316 323 325 326 325 325 325 326 326 327 327 326 322 321 320 321 322 320 318 316 315
313 312 311 313 313 311 312 309 309 312 311 312 312 313 313 313 314 314 312 312 312 312 312 312 312 312 312 313 315 324 323 323 323 324 324 325 325 324 322 321 319 320 320 319 318 316 315 313 310
311 312 313 313 313 313 311 310 310 311 311 311 312 313 313 314 315 313 312 311 311 311 312 312 312 312 313 314 319 322 322 322 321 321 320 322 322 322 320 320 319 319 317 314 311 307 305 305 306
312 313 312 311 311 311 311 311 309 309 310 312 313 314 315 314 315 314 312 312 311 311 312 312 312 312 312 315 315 318 321 320 320 320 319 321 322 321 320 319 317 317 312 306 302 301 301 302 303
311 311 312 313 312 310 310 310 310 310 311 312 313 315 315 315 316 315 313 313 311 311 311 312 312 312 313 316 319 320 321 320 319 318 318 319 320 319 318 316 315 308 304 301 299 298 297 298 299
313 311 312 313 314 314 311 314 311 310 310 309 314 315 316 316 315 315 314 313 312 311 311 311 312 312 313 316 318 318 319 319 318 318 317 319 318 316 315 311 305 302 299 299 298 297 296 296 296
314 311 311 313 312 313 312 312 314 311 312 312 313 317 317 318 317 316 315 314 314 311 311 310 311 313 314 316 318 318 318 319 319 317 317 318 316 313 308 302 300 299 298 298 297 297 296 296 295
310 312 310 310 311 314 313 313 313 313 313 313 313 316 317 317 317 315 312 312 311 310 309 310 312 313 315 317 317 317 317 318 318 317 317 317 313 308 300 298 298 297 297 297 297 296 296 295 294
312 312 314 314 313 316 310 312 315 312 311 312 314 317 318 316 316 314 312 311 310 310 309 309 311 313 315 317 317 317 316 316 318 318 317 315 310 301 298 297 297 297 297 297 297 296 295 294 294
311 312 314 315 314 313 310 314 315 310 312 313 315 316 315 315 315 316 315 312 310 309 309 309 311 313 315 316 316 315 316 315 316 317 317 313 307 300 298 297 297 297 297 297 296 295 295 294 293
311 313 312 314 298 309 313 312 311 309 309 310 313 314 314 315 316 315 313 310 309 309 309 309 311 312 314 316 314 314 314 314 314 316 315 310 302 298 297 297 297 297 296 296 296 295 294 293 291
311 310 314 310 312 311 313 313 316 315 312 311 309 313 316 314 314 314 312 310 309 308 308 308 310 311 314 314 313 312 313 313 313 314 312 304 299 297 297 297 296 296 296 296 295 294 293 292 290
311 312 312 312 311 314 312 315 309 314 311 311 310 317 316 315 314 313 313 311 309 308 308 308 309 311 312 313 313 312 313 313 314 312 308 301 298 297 296 296 296 296 296 295 294 293 292 291 289
310 312 312 313 312 310 311 317 310 309 310 310 313 316 316 316 315 312 312 311 309 308 307 307 307 309 311 313 312 312 312 313 312 308 303 298 297 296 296 296 295 295 295 294 293 292 291 290 289
Wind_Speed
2 1 0 1 4 6 1 1 2 1 3 3 6 5 7 6 2 3 15 9 6 10 12 12 12 12 12 11 10 11 11 11 11 11 11 12 14 15 17 17 18 16 14 13 13 11 11 9 8
2 1 1 3 5 4 4 3 4 3 13 19 14 8 7 2 4 9 9 9 11 11 11 11 11 11 10 10 9 9 9 9 10 10 10 11 12 14 16 17 18 18 16 14 13 12 10 8 6
4 1 1 4 4 4 5 3 4 12 17 3 6 8 4 5 9 8 9 13 12 13 13 12 12 11 11 10 9 9 8 8 8 7 8 9 10 12 15 16 16 16 17 17 15 13 11 9 7
3 1 5 5 3 3 5 6 5 11 3 3 12 7 4 6 8 10 11 13 11 13 13 12 13 12 11 9 8 7 6 5 4 5 6 7 8 10 12 14 15 15 15 15 15 14 13 11 9
3 3 5 4 3 1 2 9 15 6 4 7 4 5 4 7 9 11 13 14 12 13 14 13 12 12 12 10 9 8 6 5 4 4 5 6 7 7 9 11 12 13 13 12 11 12 12 11 10
3 3 5 2 1 2 0 10 8 5 4 8 7 9 6 10 10 12 14 15 12 13 13 14 13 13 12 12 10 9 7 6 5 5 5 4 5 5 7 9 11 13 13 11 10 11 11 11 11
6 4 4 6 4 1 4 10 8 8 7 2 13 5 7 14 13 14 15 15 16 16 16 15 14 15 14 13 12 10 9 8 7 6 7 5 4 3 5 6 9 11 15 12 10 10 11 11 10
4 5 4 3 6 5 6 6 10 12 3 13 6 6 7 22 18 17 16 15 18 19 18 18 18 17 15 15 13 12 11 9 8 6 5 4 4 3 4 5 7 11 16 19 16 15 12 11 11
4 5 3 6 7 4 8 4 7 6 12 8 9 6 6 25 23 21 20 19 19 20 19 18 19 19 18 16 15 14 13 12 11 9 8 6 5 4 4 5 4 7 9 13 13 13 14 13 12
5 4 8 6 5 4 7 6 12 7 8 5 8 11 12 25 25 23 22 21 20 20 20 19 20 21 20 19 17 14 14 13 13 11 9 7 6 5 7 7 3 2 5 6 7 8 10 11 10
3 4 5 3 3 5 7 4 7 9 4 12 16 16 21 26 25 24 22 20 19 19 20 19 19 19 19 19 19 18 17 16 16 14 12 9 8 8 10 9 5 3 2 2 3 4 5 6 7
3 1 2 2 1 5 5 4 5 14 7 10 11 16 22 26 26 26 24 23 21 20 20 20 21 21 20 20 19 21 21 22 20 18 15 13 12 12 12 14 7 5 5 3 2 2 1 5 4
2 1 1 3 3 3 4 5 6 12 14 9 13 21 23 24 24 23 22 22 22 21 20 21 21 21 22 22 22 21 21 19 18 19 17 15 15 13 19 14 8 7 6 4 2 1 1 2 1
1 0 3 3 4 4 4 4 3 10 15 13 17 22 24 25 24 25 26 25 23 21 20 20 20 21 21 22 22 22 22 19 17 17 18 17 16 16 17 14 11 10 6 5 2 2 3 1 1
2 3 5 5 6 3 5 6 10 18 13 17 20 23 25 25 26 26 24 24 22 21 21 21 21 21 22 21 22 21 19 19 19 19 19 17 17 17 17 16 14 12 8 7 5 6 3 2 0
3 5 3 2 6 2 6 8 9 18 19 22 23 25 26 27 27 26 26 26 25 24 22 21 21 21 22 21 23 21 20 21 20 21 20 19 17 19 18 18 15 12 9 9 9 8 5 3 3
6 3 4 8 9 3 5 6 3 7 18 24 27 27 29 29 29 29 29 28 27 25 24 22 20 20 21 23 25 23 22 22 21 22 22 23 22 22 20 17 13 10 10 10 8 8 6 5 7
6 4 4 5 3 3 3 12 9 8 15 27 27 30 32 33 34 30 31 31 30 28 26 24 21 21 23 25 27 25 24 24 21 22 22 24 24 22 18 14 12 11 10 10 10 9 10 9 8
5 4 5 4 3 4 7 10 13 15 17 22 27 30 35 37 33 32 33 33 33 32 29 26 25 24 26 28 28 29 28 25 24 21 18 20 20 19 17 15 13 13 12 10 11 12 11 13 11
2 3 6 5 4 5 8 12 11 7 14 31 35 36 40 40 40 37 38 38 37 35 32 29 27 26 27 29 29 29 28 27 24 22 18 17 20 19 16 15 14 15 14 14 13 9 10 11 11
5 6 5 8 3 3 5 8 9 11 22 30 32 41 42 45 46 44 43 43 39 38 36 32 29 27 28 31 30 30 30 28 28 25 21 22 21 19 18 16 17 18 16 14 12 10 7 7 8
6 8 6 5 2 4 2 6 6 6 11 9 33 38 46 48 47 44 45 47 44 41 37 33 30 29 31 31 32 31 33 34 30 26 22 24 22 20 19 20 20 19 17 14 12 11 8 6 4
7 4 6 2 3 3 4 4 4 1 8 13 24 41 41 40 41 44 44 47 46 43 39 35 32 32 31 32 31 31 32 30 29 27 25 26 24 23 24 23 21 19 16 13 10 7 5 4 1
7 5 5 4 2 4 9 9 6 7 9 6 21 36 31 26 29 33 35 39 48 43 39 36 35 34 33 34 34 33 32 32 33 31 30 29 28 28 28 25 21 18 14 11 8 6 4 2 1
4 6 2 4 1 8 4 5 18 9 10 13 15 30 27 19 18 22 29 36 44 46 42 40 38 37 36 36 35 35 34 33 32 31 32 32 33 34 30 26 21 17 14 10 7 5 3 1 1
8 8 6 7 4 5 3 7 6 10 20 25 29 34 31 27 21 23 25 31 38 45 44 42 40 39 39 38 37 36 35 34 34 31 32 33 34 33 30 26 21 17 14 10 7 6 3 1 1
5 6 4 1 2 2 6 9 8 11 13 15 28 25 28 22 20 22 25 27 34 44 46 43 41 41 40 39 38 38 37 36 35 34 33 34 35 33 29 25 21 18 15 11 8 7 4 3 2
6 7 3 2 2 5 6 7 8 6 9 15 11 24 27 20 17 19 22 25 30 39 43 42 41 41 40 40 41 40 39 37 36 36 35 37 37 34 30 27 23 19 16 13 11 9 7 6 4
4 5 2 4 5 5 3 9 8 14 10 10 12 26 22 17 16 17 19 22 26 35 42 41 41 41 41 43 42 41 39 38 37 37 38 40 38 35 31 27 24 21 18 16 14 12 10 9 7
2 1 9 4 6 5 2 18 3 8 10 12 20 16 12 11 12 14 18 22 26 34 40 41 40 42 43 44 42 41 38 38 39 40 42 42 39 35 31 28 25 23 20 18 16 14 13 11 9
Wind_Direction
242 255 262 82 57 67 352 241 293 104 46 45 122 132 133 60 119 195 145 155 161 168 159 158 157 150 142 130 118 107 95 88 87 84 74 63 61 55 52 58 63 71 75 74 73 72 73 72 69
198 178 136 102 86 77 271 260 191 173 135 104 92 90 55 71 96 138 151 159 157 170 167 163 161 155 146 131 122 113 104 94 86 83 75 69 65 57 53 53 57 60 64 67 72 76 82 88 87
159 141 118 90 106 155 181 201 187 144 143 84 111 80 89 110 127 153 149 154 156 171 170 168 167 164 158 150 144 134 121 106 96 82 72 71 72 61 55 50 51 51 53 54 57 62 70 76 83
179 103 65 77 109 223 184 174 172 145 233 198 127 71 96 158 164 169 159 159 159 169 172 174 173 174 171 166 159 151 143 128 103 82 85 76 74 64 54 47 42 41 42 46 50 55 58 58 63
122 74 53 74 346 284 208 168 165 162 157 153 146 150 112 169 172 165 161 162 171 172 177 180 182 182 181 180 177 172 167 160 139 119 113 101 98 79 56 44 39 41 41 45 52 58 63 64 62
82 78 67 120 266 1 188 170 164 147 149 145 120 124 145 159 162 166 161 166 174 177 176 185 185 189 191 191 187 186 182 176 164 144 133 119 116 74 60 50 44 43 41 38 44 53 57 60 60
109 79 159 153 196 231 213 184 172 156 140 147 144 119 164 172 177 176 175 178 175 179 186 193 198 197 196 197 199 200 195 189 180 169 161 157 144 108 75 65 59 49 39 43 56 60 61 61 60
100 91 109 181 185 229 179 169 174 159 140 148 177 177 188 183 181 184 186 191 189 190 197 201 201 205 207 209 211 209 206 203 198 193 187 186 167 141 117 105 71 67 59 45 62 56 56 56 59
102 66 142 187 157 237 172 140 158 171 153 181 193 204 215 184 185 189 194 195 200 205 207 207 209 209 210 217 216 213 212 210 209 211 210 206 197 181 157 142 100 92 76 69 65 60 54 48 50
77 101 196 188 200 227 187 178 161 161 161 199 193 199 190 187 191 198 202 205 206 208 211 211 209 209 210 211 214 216 225 224 223 222 222 219 212 202 194 177 148 113 98 81 91 64 52 54 52
112 163 188 208 225 230 181 193 179 160 227 206 201 190 182 187 196 203 208 215 219 215 217 217 217 217 218 220 212 209 214 224 229 226 222 232 215 216 221 204 190 245 207 136 122 101 79 51 44
94 109 158 195 222 175 178 175 200 201 218 228 218 214 193 195 202 206 210 213 217 221 223 225 226 225 226 224 218 209 212 220 223 222 216 226 227 226 219 215 213 258 227 164 143 117 104 5 23
81 151 196 209 228 223 202 215 221 235 236 228 214 205 206 206 210 211 215 221 224 223 225 227 228 229 228 225 224 212 211 214 220 219 219 216 227 232 228 194 236 232 205 200 192 228 340 333 11
107 155 261 227 227 233 200 237 222 237 236 229 214 207 208 212 215 217 219 221 223 226 228 229 229 229 228 226 221 213 215 213 210 210 205 207 215 220 210 236 235 230 221 207 197 248 301 355 25
58 348 338 234 212 227 199 291 240 237 228 220 206 206 209 214 217 225 227 227 228 229 229 231 231 231 228 224 217 205 209 210 207 210 212 209 211 210 225 223 239 239 225 216 201 238 232 229 294
47 50 11 299 162 222 155 259 262 241 222 215 211 212 217 219 226 226 226 228 230 230 231 234 233 230 226 217 215 206 200 207 205 209 211 212 210 208 220 226 227 228 214 209 208 219 225 181 147
5 235 208 313 204 135 176 262 269 229 217 223 221 222 225 229 230 229 228 229 231 232 232 233 232 228 222 211 211 200 198 205 206 212 214 214 216 214 221 226 220 215 201 202 200 194 192 187 163
200 215 239 237 210 179 224 263 266 267 225 234 234 232 233 235 237 235 232 231 231 232 231 230 229 224 215 211 210 197 201 204 206 208 213 214 219 218 209 202 200 192 188 187 198 200 180 179 168
147 182 218 240 225 189 231 253 265 245 234 240 241 239 238 240 245 236 235 235 233 231 229 229 228 222 215 211 205 204 202 203 209 211 216 216 202 197 195 191 186 186 189 191 170 171 168 158 157
162 201 250 283 249 184 266 258 260 223 231 235 240 243 243 245 245 239 234 233 233 231 229 227 225 223 217 214 215 210 200 198 203 205 209 197 192 191 190 189 191 188 183 171 158 162 165 166 168
223 204 221 227 352 259 330 281 246 251 241 251 249 254 255 252 250 244 234 234 231 227 226 225 223 221 215 211 209 203 199 202 201 201 202 194 190 189 190 191 184 175 172 170 164 165 171 190 199
239 209 199 226 145 244 146 282 279 252 257 224 252 253 255 254 253 251 241 233 231 228 224 223 221 218 216 211 210 211 208 202 200 199 199 195 191 192 189 184 176 173 172 177 174 169 173 172 189
227 128 175 145 175 5 199 277 245 335 264 257 254 257 259 260 259 254 247 238 233 227 222 220 218 217 214 209 206 208 211 213 205 201 204 198 194 188 183 178 176 178 178 180 177 174 172 164 188
145 81 55 60 103 267 209 194 206 200 222 241 249 260 267 270 266 261 253 241 229 224 219 218 216 215 211 206 205 209 211 212 211 208 206 200 193 184 180 179 180 181 183 181 181 180 172 171 323
120 102 306 322 17 241 47 208 258 287 259 228 251 266 274 269 275 263 248 237 229 221 218 215 214 214 212 208 207 210 213 216 222 220 211 201 191 185 183 183 184 186 186 187 187 186 185 180 321
194 166 170 215 208 267 138 236 247 233 264 256 260 266 271 272 274 271 257 241 233 219 217 215 214 214 214 209 210 210 213 216 218 223 215 204 197 190 187 186 188 191 193 193 196 201 206 246 297
197 204 183 7 119 355 231 272 287 253 266 271 254 260 265 268 269 264 253 242 232 220 218 218 216 218 215 209 210 212 213 215 217 218 211 204 197 193 192 192 195 196 197 200 207 208 213 213 242
161 165 76 2 242 257 270 265 228 259 245 255 268 257 265 266 260 260 254 243 233 223 219 219 220 222 217 216 215 214 214 215 217 216 210 202 198 197 196 197 198 201 202 208 208 206 208 211 214
148 198 148 142 166 203 298 260 219 218 211 228 248 256 271 280 269 260 254 244 234 222 220 221 222 222 218 219 218 218 218 218 216 214 209 203 201 201 201 202 205 206 208 208 208 208 212 211 215
40 246 173 161 220 237 204 264 163 230 221 214 250 262 277 287 291 264 252 242 229 220 221 223 224 223 221 220 221 220 220 218 214 212 208 204 204 204 205 207 208 209 211 212 212 215 214 215 220